sat.trackr.live / text

‹ back to catalog

STARLINK-5085

NORAD 55392 · 2023-014B

PAYLOAD ACTIVE UNKNOWN

§ Identity

Operator
Country
US
Launch date
2023-01-31
Launch site
AFWTR
Launch vehicle
Mass (kg)
RCS (m²)

Purposes: comms

External: N2YO · Heavens-Above · Gunter

§ Orbital elements

Epoch: 2026-05-25T03:28:44.486976Z

Period
96.11 min
Inclination
69.9993°
Eccentricity
0.0003675
Mean motion
14.98332042 rev/d
Perigee alt
569.5 km
Apogee alt
574.6 km
Semi-major
6,950.2 km
B*
2.0565e-5
RAAN
211.5730°
Arg perigee
268.7027°
Mean anomaly
91.3711°
Rev number
18,400

§ Raw data

STARLINK-50851 55392U 23014B   26145.14495934  .00000152  00000+0  20565-4 0  99902 55392  69.9993 211.5730 0003675 268.7027  91.3711 14.98332042184004

JSON: /api/v1/satellites/55392 · /tle

For live sub-satellite position, see the globe view (requires WebGL).

§ Visibility from observer

Set your observer location to see the next 7 days of passes ≥ 10°. The values pass through the URL so the page stays shareable.

No JS? Fill the form by hand. The geolocation button needs JavaScript.